Location: Chuathbaluk
(61.5726°N, 159.2454°W)
Time: 12:46:04
(UTC+00:00)

XW-2F - Pass Details

Date: 17 January 2021
Orbit: 500 x 520 km, 97.5° (Epoch: 01 March)

Event Time Altitude Azimuth Distance (km) Brightness Sun altitude
Rises 15:20:10 0° 27° (NNE) 2,658 ? -28.3°
Reaches altitude 10° 15:23:44 10° 63° (ENE) 1,767 ? -27.9°
Maximum altitude 15:24:58 11° 82° (E) 1,684 ? -27.8°
Drops below altitude 10° 15:26:12 10° 101° (E) 1,764 ? -27.6°
Sets 15:29:45 0° 137° (SE) 2,647 ? -27.2°
